TimeCST,TemperatureF,Dew PointF,Humidity,Sea Level PressureIn,VisibilityMPH,Wind Direction,Wind SpeedMPH,Gust SpeedMPH,PrecipitationIn,Events,Conditions,WindDirDegrees,DateUTC
12:15 AM,-9999,-9999,N/A,29.98,10.0,Calm,Calm,-,N/A,,Unknown,0,2013-02-05 06:15:00
12:35 AM,-9999,-9999,N/A,29.98,10.0,Calm,Calm,-,N/A,,Unknown,0,2013-02-05 06:35:00
12:55 AM,-9999,-9999,N/A,29.97,10.0,Calm,Calm,-,N/A,,Unknown,0,2013-02-05 06:55:00
1:15 AM,-9999,-9999,N/A,29.97,10.0,Calm,Calm,-,N/A,,Unknown,0,2013-02-05 07:15:00
1:35 AM,-9999,-9999,N/A,29.97,10.0,North,4.6,-,N/A,,Unknown,10,2013-02-05 07:35:00
1:55 AM,-9999,-9999,N/A,29.97,10.0,Calm,Calm,-,N/A,,Unknown,0,2013-02-05 07:55:00
2:15 AM,-9999,-9999,N/A,29.96,10.0,East,3.5,-,N/A,,Unknown,80,2013-02-05 08:15:00
2:35 AM,-9999,-9999,N/A,29.96,10.0,Calm,Calm,-,N/A,,Unknown,0,2013-02-05 08:35:00
2:55 AM,-9999,-9999,N/A,29.96,10.0,Calm,Calm,-,N/A,,Unknown,0,2013-02-05 08:55:00
3:15 AM,-9999,-9999,N/A,29.96,10.0,Calm,Calm,-,N/A,,Unknown,0,2013-02-05 09:15:00
3:35 AM,-9999,-9999,N/A,29.96,10.0,Calm,Calm,-,N/A,,Unknown,0,2013-02-05 09:35:00
3:55 AM,-9999,-9999,N/A,29.95,7.0,Calm,Calm,-,N/A,,Unknown,0,2013-02-05 09:55:00
4:15 AM,-9999,-9999,N/A,29.96,7.0,Calm,Calm,-,N/A,,Unknown,0,2013-02-05 10:15:00
4:35 AM,-9999,-9999,N/A,29.96,0.5,Calm,Calm,-,N/A,Fog,Fog,0,2013-02-05 10:35:00
4:55 AM,-9999,-9999,N/A,29.96,0.2,Calm,Calm,-,N/A,Fog,Fog,0,2013-02-05 10:55:00
5:15 AM,-9999,-9999,N/A,29.96,0.2,Calm,Calm,-,N/A,Fog,Fog,0,2013-02-05 11:15:00
5:35 AM,-9999,-9999,N/A,29.97,0.2,Calm,Calm,-,N/A,Fog,Fog,0,2013-02-05 11:35:00
5:55 AM,-9999,-9999,N/A,29.98,0.5,Calm,Calm,-,N/A,Fog,Fog,0,2013-02-05 11:55:00
6:15 AM,-9999,-9999,N/A,29.99,0.5,Calm,Calm,-,N/A,Fog,Fog,0,2013-02-05 12:15:00
6:35 AM,-9999,-9999,N/A,29.99,0.5,Calm,Calm,-,N/A,Fog,Fog,0,2013-02-05 12:35:00
6:55 AM,-9999,-9999,N/A,30.00,2.0,Calm,Calm,-,N/A,,Mist,0,2013-02-05 12:55:00
7:15 AM,-9999,-9999,N/A,30.00,0.5,Calm,Calm,-,N/A,Fog,Fog,0,2013-02-05 13:15:00
7:35 AM,-9999,-9999,N/A,30.00,0.2,Calm,Calm,-,N/A,Fog,Fog,0,2013-02-05 13:35:00
7:55 AM,-9999,-9999,N/A,30.02,0.2,NNE,4.6,-,N/A,Fog,Fog,20,2013-02-05 13:55:00
8:15 AM,-9999,-9999,N/A,30.02,0.5,NNE,4.6,-,N/A,Fog,Fog,30,2013-02-05 14:15:00
8:35 AM,-9999,-9999,N/A,30.02,2.5,NE,5.8,-,N/A,,Mist,40,2013-02-05 14:35:00
8:55 AM,-9999,-9999,N/A,30.03,10.0,ENE,4.6,-,N/A,,Unknown,70,2013-02-05 14:55:00
9:15 AM,-9999,-9999,N/A,30.03,10.0,ENE,3.5,-,N/A,,Unknown,70,2013-02-05 15:15:00
9:35 AM,-9999,-9999,N/A,30.04,10.0,East,3.5,-,N/A,,Unknown,100,2013-02-05 15:35:00
9:55 AM,-9999,-9999,N/A,30.04,10.0,Calm,Calm,-,N/A,,Unknown,0,2013-02-05 15:55:00
10:15 AM,-9999,-9999,N/A,30.04,10.0,East,4.6,-,N/A,,Unknown,90,2013-02-05 16:15:00
10:35 AM,63.1,57.6,82,30.05,10.0,ESE,4.6,-,N/A,,Unknown,120,2013-02-05 16:35:00
10:55 AM,64.4,59.2,83,30.04,10.0,Calm,Calm,-,N/A,,Unknown,0,2013-02-05 16:55:00
11:15 AM,66.4,56.3,70,30.03,10.0,Calm,Calm,-,N/A,,Unknown,0,2013-02-05 17:15:00
11:35 AM,67.5,56.1,67,30.03,10.0,Calm,Calm,-,N/A,,Unknown,0,2013-02-05 17:35:00
11:55 AM,68.9,55.9,63,30.02,10.0,Calm,Calm,-,N/A,,Unknown,0,2013-02-05 17:55:00
12:15 PM,68.2,55.6,64,30.01,10.0,SSE,3.5,-,N/A,,Unknown,160,2013-02-05 18:15:00
12:35 PM,68.2,55.6,64,30.01,10.0,Calm,Calm,-,N/A,,Unknown,0,2013-02-05 18:35:00
1:15 PM,69.3,56.1,63,30.00,10.0,Calm,Calm,-,N/A,,Unknown,0,2013-02-05 19:15:00
1:35 PM,68.5,55.8,64,29.99,10.0,SSW,3.5,-,N/A,,Unknown,210,2013-02-05 19:35:00
1:55 PM,68.9,56.1,64,29.99,10.0,SSW,4.6,-,N/A,,Unknown,200,2013-02-05 19:55:00
2:15 PM,68.5,56.3,65,29.99,10.0,Calm,Calm,-,N/A,,Unknown,0,2013-02-05 20:15:00
2:35 PM,68.9,56.1,64,29.98,10.0,Calm,Calm,-,N/A,,Unknown,0,2013-02-05 20:35:00
2:55 PM,69.3,55.6,62,29.98,10.0,WNW,3.5,-,N/A,,Unknown,300,2013-02-05 20:55:00
3:15 PM,69.6,56.1,62,29.98,10.0,Calm,Calm,-,N/A,,Unknown,0,2013-02-05 21:15:00
3:35 PM,69.8,54.9,59,29.98,10.0,Calm,Calm,-,N/A,,Unknown,0,2013-02-05 21:35:00
3:55 PM,69.8,55.6,61,29.98,10.0,Calm,Calm,-,N/A,,Overcast,0,2013-02-05 21:55:00
4:15 PM,69.3,54.9,60,29.98,10.0,Calm,Calm,-,N/A,,Overcast,0,2013-02-05 22:15:00
4:35 PM,68.9,56.1,64,29.98,10.0,Calm,Calm,-,N/A,,Overcast,0,2013-02-05 22:35:00
5:15 PM,67.3,58.1,72,29.98,10.0,Calm,Calm,-,N/A,,Overcast,0,2013-02-05 23:15:00
5:35 PM,66.0,58.6,77,29.98,10.0,WSW,3.5,-,N/A,,Overcast,250,2013-02-05 23:35:00
5:55 PM,64.9,57.4,76,29.98,10.0,Calm,Calm,-,N/A,,Mostly Cloudy,0,2013-02-05 23:55:00
6:15 PM,62.4,62.4,100,29.99,10.0,Calm,Calm,-,N/A,,Clear,0,2013-02-06 00:15:00
6:35 PM,-9999,-9999,N/A,29.99,10.0,Calm,Calm,-,N/A,,Clear,0,2013-02-06 00:35:00
6:55 PM,-9999,-9999,N/A,30.00,10.0,Calm,Calm,-,N/A,,Clear,0,2013-02-06 00:55:00
7:15 PM,-9999,-9999,N/A,30.01,10.0,Calm,Calm,-,N/A,,Unknown,0,2013-02-06 01:15:00
8:15 PM,-9999,-9999,N/A,30.03,10.0,Calm,Calm,-,N/A,,Unknown,0,2013-02-06 02:15:00
8:35 PM,-9999,-9999,N/A,30.03,10.0,Calm,Calm,-,N/A,,Unknown,0,2013-02-06 02:35:00
8:55 PM,-9999,-9999,N/A,30.04,3.0,Calm,Calm,-,N/A,,Mist,0,2013-02-06 02:55:00
9:15 PM,-9999,-9999,N/A,30.04,10.0,Calm,Calm,-,N/A,,Unknown,0,2013-02-06 03:15:00
9:35 PM,-9999,-9999,N/A,30.04,0.2,Calm,Calm,-,N/A,Fog,Fog,0,2013-02-06 03:35:00
9:55 PM,-9999,-9999,N/A,30.04,1.0,Calm,Calm,-,N/A,,Mist,0,2013-02-06 03:55:00
10:15 PM,-9999,-9999,N/A,30.05,4.0,Calm,Calm,-,N/A,,Haze,0,2013-02-06 04:15:00
10:35 PM,-9999,-9999,N/A,30.05,4.0,Calm,Calm,-,N/A,,Haze,0,2013-02-06 04:35:00
10:55 PM,-9999,-9999,N/A,30.05,1.2,Calm,Calm,-,N/A,,Mostly Cloudy,0,2013-02-06 04:55:00
11:15 PM,-9999,-9999,N/A,30.06,0.2,Calm,Calm,-,N/A,Fog,Fog,0,2013-02-06 05:15:00
11:35 PM,-9999,-9999,N/A,30.06,0.2,Calm,Calm,-,N/A,Fog,Fog,0,2013-02-06 05:35:00
11:55 PM,-9999,-9999,N/A,30.06,0.5,Calm,Calm,-,N/A,Fog,Fog,0,2013-02-06 05:55:00